Kingsport, TN

7:56 PM EDT on August 24, 2016 (GMT -0400)
Tri-Cities Regional Tennessee / Virginia

Weather History for KTRI - August, 2013

Change the Weather History Date:

Saturday, August 17, 2013

  Actual Average Record
Temperature  
Mean Temperature 67 °F 74 °F  
Max Temperature 77 °F 85 °F 100 °F (1988)
Min Temperature 57 °F 63 °F 49 °F (1979)
Degree Days  
Heating Degree Days 0 0  
Month to date heating degree days 0 0  
Since 1 June heating degree days 0 11  
Since 1 July heating degree days 0 0  
Cooling Degree Days 2 9  
Month to date cooling degree days 138 155  
Year to date cooling degree days 728 733  
Since 1 June cooling degree days 656 660  
Growing Degree Days 17 (Base 50)    
Moisture  
Dew Point 58 °F    
Average Humidity 72    
Maximum Humidity 90    
Minimum Humidity 54    
Precipitation  
Precipitation T in 0.10 in 1.39 in (1985)
Month to date precipitation 4.25 2.05  
Year to date precipitation 44.42 28.03  
Snow  
Snow 0.00 in 0.00 in - ()
Month to date snowfall 0.0 0.0  
Since 1 June snowfall 0.0 0.0  
Since 1 July snowfall 0.0 0.0  
Snow Depth 0.00 in    
Sea Level Pressure  
Sea Level Pressure 30.11 in    
Wind  
Wind Speed 2 mph (ENE)    
Max Wind Speed 7 mph    
Max Gust Speed 10 mph    
Visibility 10 miles    
Events      
T = Trace of Precipitation, MM = Missing Value Source: NWS Daily Summary

Daily Weather History Graph

Daily Weather History Graph

Search for Another Location

Airport or City:

Trip Planner

Search our weather history database for the weather conditions in past years. The results will help you decide how hot, cold, wet, or windy it might be!

Date:

Astronomy

Aug. 17, 2013 Rise Set
Actual Time 6:49 AM EDT 8:17 PM EDT
Civil Twilight 6:21 AM EDT 8:44 PM EDT
Nautical Twilight 5:49 AM EDT 9:17 PM EDT
Astronomical Twilight 5:14 AM EDT 9:51 PM EDT
Moon 5:29 PM EDT (8/17) 2:54 AM EDT (8/17)
Length of Visible Light 14h 22m
Length of Day
13h 28m
Waxing Gibbous, 84% of the Moon is Illuminated
Aug 17
Waxing Gibbous
Aug 20
Full
Aug 28
Last Quarter
Sep 5
New
Sep 12
First Quarter

Hourly Weather History & Observations

Time (EDT) Temp. Dew Point Humidity Pressure Visibility Wind Dir Wind Speed Gust Speed Precip Events Conditions
12:53 AM 62.1 °F 59.0 °F 90% 30.10 in 10.0 mi North 3.5 mph - N/A   Mostly Cloudy
1:53 AM 62.1 °F 57.9 °F 86% 30.09 in 10.0 mi Calm Calm - N/A   Mostly Cloudy
2:53 AM 60.1 °F 57.0 °F 90% 30.10 in 10.0 mi Calm Calm - N/A   Scattered Clouds
3:53 AM 59.0 °F 55.9 °F 90% 30.12 in 10.0 mi Calm Calm - N/A   Scattered Clouds
4:53 AM 59.0 °F 55.9 °F 90% 30.12 in 10.0 mi Calm Calm - N/A   Scattered Clouds
5:53 AM 59.0 °F 55.9 °F 90% 30.12 in 10.0 mi Calm Calm - N/A   Mostly Cloudy
6:53 AM 59.0 °F 55.9 °F 90% 30.13 in 10.0 mi Calm Calm - N/A   Mostly Cloudy
7:53 AM 60.1 °F 55.9 °F 86% 30.14 in 10.0 mi Calm Calm - N/A   Mostly Cloudy
8:53 AM 62.1 °F 55.9 °F 80% 30.15 in 10.0 mi ENE 4.6 mph - N/A   Mostly Cloudy
9:53 AM 64.9 °F 55.0 °F 70% 30.15 in 10.0 mi East 4.6 mph - N/A   Mostly Cloudy
10:53 AM 68.0 °F 55.0 °F 63% 30.15 in 10.0 mi East 5.8 mph - N/A   Mostly Cloudy
11:53 AM 70.0 °F 54.0 °F 57% 30.15 in 10.0 mi ENE 3.5 mph - N/A   Mostly Cloudy
12:53 PM 73.0 °F 57.0 °F 57% 30.11 in 10.0 mi Calm Calm - N/A   Mostly Cloudy
1:53 PM 75.0 °F 57.0 °F 53% 30.10 in 10.0 mi Variable 3.5 mph - N/A   Mostly Cloudy
2:53 PM 75.9 °F 57.9 °F 54% 30.10 in 10.0 mi North 5.8 mph - N/A   Overcast
3:53 PM 75.9 °F 59.0 °F 56% 30.08 in 10.0 mi Calm Calm - N/A   Overcast
4:53 PM 73.0 °F 62.1 °F 68% 30.08 in 10.0 mi Variable 3.5 mph - N/A   Overcast
5:53 PM 73.0 °F 63.0 °F 71% 30.08 in 10.0 mi East 6.9 mph - N/A   Overcast
6:53 PM 72.0 °F 62.1 °F 71% 30.09 in 10.0 mi NNW 3.5 mph - N/A   Overcast
7:53 PM 71.1 °F 62.1 °F 73% 30.08 in 10.0 mi ENE 4.6 mph - N/A   Overcast
8:53 PM 70.0 °F 61.0 °F 73% 30.09 in 10.0 mi Variable 4.6 mph - N/A   Overcast
9:53 PM 68.0 °F 61.0 °F 78% 30.10 in 10.0 mi ENE 4.6 mph - N/A   Overcast
10:53 PM 66.9 °F 61.0 °F 81% 30.12 in 10.0 mi Calm Calm - 0.00 in   Overcast
11:53 PM 66.9 °F 61.0 °F 81% 30.11 in 10.0 mi Calm Calm - N/A   Overcast